Terminal Aerodrome Forecast
Issued by NWS Duluth, MN

Home | Current Version | Previous Version | Text Only | Print | Product List | Glossary On
Versions: 1 2 3 4 5 6 7 8 9 10 11 12 13 14 15 16 17 18 19 20
000
FTUS43 KDLH 311137
TAFINL
TAF
KINL 311137Z 3112/0112 VRB05KT P6SM SKC
     FM311500 20014G21KT P6SM SCT150
     FM312300 21005KT P6SM SCT040 BKN120
     FM010400 VRB03KT P6SM SKC=

USA.gov is the U.S. government's official web portal to all federal, state and local government web resources and services.